Hourly Weather Rublene

Today, 19 April, Monday

Time Temperature Precipitation Wind Pressure Humidity
00:00 +9°C° 0.9 mm 1 mps 743 mmHg 88%
01:00 +8°C° 0.4 mm 1 mps 743 mmHg 89%
02:00 +8°C° 0.4 mm 1 mps 743 mmHg 89%
03:00 +7°C° 0 mm 2 mps 743 mmHg 90%
04:00 +7°C° 0.1 mm 2 mps 743 mmHg 90%
05:00 +7°C° 0.1 mm 2 mps 743 mmHg 90%
06:00 +6°C° 0.1 mm 2 mps 743 mmHg 90%
07:00 +7°C° 0.1 mm 2 mps 743 mmHg 86%
08:00 +8°C° 0.1 mm 2 mps 743 mmHg 81%
09:00 +9°C° 0.1 mm 3 mps 743 mmHg 77%
10:00 +10°C° 0.2 mm 2 mps 742 mmHg 70%
11:00 +12°C° 0.2 mm 2 mps 742 mmHg 63%
12:00 +13°C° 0.2 mm 2 mps 742 mmHg 57%
13:00 +14°C° 0.3 mm 1 mps 742 mmHg 55%
14:00 +14°C° 0.3 mm 1 mps 742 mmHg 53%
15:00 +14°C° 0.3 mm 1 mps 742 mmHg 52%
16:00 +14°C° 0.3 mm 1 mps 741 mmHg 54%
17:00 +14°C° 0.3 mm 1 mps 741 mmHg 56%
18:00 +14°C° 0.3 mm 1 mps 741 mmHg 59%
19:00 +13°C° 0.1 mm 1 mps 741 mmHg 64%
20:00 +12°C° 0.1 mm 2 mps 741 mmHg 69%
21:00 +9°C° 0.1 mm 2 mps 741 mmHg 74%
22:00 +9°C° 0 mm 2 mps 741 mmHg 77%
23:00 +9°C° 0 mm 2 mps 741 mmHg 80%

Tomorrow, 20 April, Tuesday

Time Temperature Precipitation Wind Pressure Humidity
00:00 +8°C° 0 mm 2 mps 741 mmHg 83%
01:00 +8°C° 0 mm 2 mps 740 mmHg 85%
02:00 +7°C° 0 mm 2 mps 740 mmHg 86%
03:00 +7°C° 0 mm 2 mps 740 mmHg 88%
04:00 +7°C° 0 mm 3 mps 739 mmHg 90%
05:00 +7°C° 0 mm 3 mps 739 mmHg 91%
06:00 +6°C° 0 mm 4 mps 739 mmHg 92%
07:00 +7°C° 0 mm 4 mps 738 mmHg 89%
08:00 +7°C° 0 mm 5 mps 738 mmHg 85%
09:00 +8°C° 0 mm 5 mps 738 mmHg 82%
10:00 +9°C° 0.2 mm 6 mps 737 mmHg 81%
11:00 +10°C° 0.2 mm 6 mps 736 mmHg 80%
12:00 +11°C° 0.2 mm 7 mps 735 mmHg 78%
13:00 +10°C° 2.1 mm 7 mps 734 mmHg 84%
14:00 +9°C° 2.1 mm 7 mps 733 mmHg 89%
15:00 +8°C° 2.1 mm 7 mps 732 mmHg 95%
16:00 +8°C° 2.2 mm 5 mps 731 mmHg 95%
17:00 +8°C° 2.2 mm 4 mps 730 mmHg 96%
18:00 +9°C° 2.2 mm 3 mps 730 mmHg 96%
19:00 +9°C° 1.1 mm 3 mps 730 mmHg 96%
20:00 +7°C° 1.1 mm 4 mps 730 mmHg 95%
21:00 +7°C° 1.1 mm 4 mps 730 mmHg 95%
22:00 +6°C° 0.9 mm 4 mps 730 mmHg 94%
23:00 +6°C° 0.9 mm 5 mps 731 mmHg 93%

Day after tomorrow, 21 April, Wednesday

Time Temperature Precipitation Wind Pressure Humidity
00:00 +5°C° 0.9 mm 5 mps 731 mmHg 93%
01:00 +5°C° 0.2 mm 5 mps 732 mmHg 92%
02:00 +5°C° 0.2 mm 5 mps 733 mmHg 91%
03:00 +5°C° 0.2 mm 5 mps 734 mmHg 90%
04:00 +5°C° 0 mm 5 mps 735 mmHg 90%
05:00 +5°C° 0 mm 5 mps 736 mmHg 90%
06:00 +5°C° 0 mm 4 mps 737 mmHg 90%
07:00 +6°C° 0 mm 4 mps 737 mmHg 86%
08:00 +7°C° 0 mm 5 mps 738 mmHg 81%
09:00 +7°C° 0 mm 5 mps 739 mmHg 76%
10:00 +8°C° 0 mm 4 mps 739 mmHg 72%
11:00 +10°C° 0 mm 4 mps 740 mmHg 68%
12:00 +11°C° 0 mm 4 mps 740 mmHg 63%
13:00 +11°C° 0.1 mm 4 mps 740 mmHg 64%
14:00 +12°C° 0.1 mm 4 mps 741 mmHg 64%
15:00 +12°C° 0.1 mm 5 mps 741 mmHg 64%
16:00 +12°C° 0.1 mm 4 mps 741 mmHg 66%
17:00 +12°C° 0.1 mm 4 mps 741 mmHg 67%
18:00 +11°C° 0.1 mm 3 mps 742 mmHg 68%
19:00 +11°C° 0.1 mm 3 mps 742 mmHg 71%
20:00 +10°C° 0.1 mm 2 mps 742 mmHg 73%
21:00 +9°C° 0.1 mm 2 mps 743 mmHg 76%
22:00 +8°C° 0 mm 2 mps 743 mmHg 78%
23:00 +8°C° 0 mm 2 mps 743 mmHg 80%

22 April, Thursday

Time Temperature Precipitation Wind Pressure Humidity
00:00 +7°C° 0 mm 2 mps 744 mmHg 83%
01:00 +7°C° 0 mm 2 mps 744 mmHg 83%
02:00 +6°C° 0 mm 2 mps 744 mmHg 83%
03:00 +6°C° 0 mm 2 mps 744 mmHg 84%
04:00 +6°C° 0 mm 2 mps 744 mmHg 83%
05:00 +6°C° 0 mm 2 mps 745 mmHg 83%
06:00 +6°C° 0 mm 2 mps 745 mmHg 83%
07:00 +8°C° 0 mm 2 mps 745 mmHg 76%
08:00 +10°C° 0 mm 3 mps 745 mmHg 70%
09:00 +11°C° 0 mm 3 mps 746 mmHg 63%
10:00 +12°C° 0.2 mm 3 mps 746 mmHg 61%
11:00 +13°C° 0.2 mm 4 mps 746 mmHg 59%
12:00 +14°C° 0.2 mm 4 mps 746 mmHg 57%
13:00 +14°C° 0.6 mm 4 mps 746 mmHg 56%
14:00 +14°C° 0.6 mm 3 mps 746 mmHg 56%
15:00 +14°C° 0.6 mm 3 mps 746 mmHg 56%
16:00 +14°C° 0.6 mm 3 mps 746 mmHg 60%
17:00 +13°C° 0.6 mm 3 mps 746 mmHg 63%
18:00 +13°C° 0.6 mm 3 mps 746 mmHg 67%
19:00 +12°C° 0.1 mm 3 mps 746 mmHg 71%
20:00 +12°C° 0.1 mm 2 mps 746 mmHg 74%
21:00 +10°C° 0.1 mm 2 mps 746 mmHg 78%
22:00 +10°C° 0 mm 2 mps 746 mmHg 79%
23:00 +9°C° 0 mm 2 mps 746 mmHg 81%

23 April, Friday

Time Temperature Precipitation Wind Pressure Humidity
00:00 +9°C° 0 mm 2 mps 746 mmHg 83%
01:00 +8°C° 0 mm 2 mps 746 mmHg 84%
02:00 +8°C° 0 mm 2 mps 746 mmHg 84%
03:00 +8°C° 0 mm 2 mps 746 mmHg 85%
04:00 +8°C° 0 mm 2 mps 746 mmHg 86%
05:00 +8°C° 0 mm 2 mps 746 mmHg 86%
06:00 +8°C° 0 mm 2 mps 746 mmHg 87%
07:00 +9°C° 0 mm 2 mps 746 mmHg 84%
08:00 +10°C° 0 mm 2 mps 746 mmHg 80%
09:00 +12°C° 0 mm 2 mps 746 mmHg 77%
10:00 +12°C° 0.1 mm 3 mps 745 mmHg 67%
11:00 +14°C° 0.1 mm 3 mps 745 mmHg 58%
12:00 +17°C° 0.1 mm 4 mps 745 mmHg 48%
13:00 +15°C° 0.1 mm 4 mps 745 mmHg 51%
14:00 +15°C° 0.1 mm 4 mps 744 mmHg 54%
15:00 +15°C° 0.1 mm 4 mps 744 mmHg 56%
16:00 +14°C° 0 mm 4 mps 744 mmHg 58%
17:00 +14°C° 0 mm 3 mps 744 mmHg 59%
18:00 +14°C° 0 mm 3 mps 743 mmHg 60%
19:00 +13°C° 0 mm 3 mps 743 mmHg 64%
20:00 +12°C° 0 mm 3 mps 743 mmHg 68%
21:00 +11°C° 0 mm 3 mps 743 mmHg 72%
22:00 +11°C° 0 mm 3 mps 743 mmHg 73%
23:00 +11°C° 0 mm 3 mps 743 mmHg 74%

24 April, Saturday

Time Temperature Precipitation Wind Pressure Humidity
00:00 +10°C° 0 mm 4 mps 742 mmHg 74%
01:00 +10°C° 0.1 mm 4 mps 742 mmHg 79%
02:00 +8°C° 0.1 mm 4 mps 742 mmHg 83%
03:00 +8°C° 0.1 mm 4 mps 742 mmHg 87%
04:00 +7°C° 0.3 mm 4 mps 742 mmHg 89%
05:00 +7°C° 0.3 mm 4 mps 742 mmHg 90%
06:00 +7°C° 0.3 mm 4 mps 742 mmHg 92%
07:00 +7°C° 0.2 mm 4 mps 743 mmHg 88%
08:00 +8°C° 0.2 mm 3 mps 743 mmHg 84%
09:00 +8°C° 0.2 mm 3 mps 743 mmHg 79%
10:00 +9°C° 0 mm 3 mps 743 mmHg 70%
11:00 +11°C° 0 mm 3 mps 743 mmHg 61%
12:00 +12°C° 0 mm 3 mps 743 mmHg 52%
13:00 +14°C° 0 mm 2 mps 743 mmHg 49%
14:00 +14°C° 0 mm 2 mps 743 mmHg 46%
15:00 +15°C° 0 mm 2 mps 743 mmHg 43%
16:00 +15°C° 0 mm 2 mps 742 mmHg 46%
17:00 +14°C° 0 mm 2 mps 742 mmHg 49%
18:00 +14°C° 0 mm 1 mps 742 mmHg 52%
19:00 +13°C° 0 mm 1 mps 742 mmHg 56%
20:00 +12°C° 0 mm 1 mps 742 mmHg 60%
21:00 +11°C° 0 mm 1 mps 741 mmHg 64%
22:00 +11°C° 0.1 mm 1 mps 741 mmHg 68%
23:00 +9°C° 0.1 mm 2 mps 741 mmHg 73%
Show more